Simultaneous Nadir Overpasses (SNOs) Predictions

Prediction of SNOs between METOP-A and TERRA Satellite Orbit:

Table of predicted SNOs for the next 14.0 days since TLE Epoch: 1/16/2021
Index Date (METOP-A) Time (METOP-A) Lat,Lon (METOP-A) SZA (METOP-A ) Date (TERRA) Time (TERRA) Lat,Lon (TERRA) SZA (TERRA ) Distance(km) Time Diff (sec)
1 01/17/2021 23:38:56 81.35,-126.98 104.30 01/17/2021 23:39:53 81.37,-126.85 104.35 2.78 57
2 01/18/2021 00:29:37 -81.36, 40.29 75.71 01/18/2021 00:29:21 -81.35, 40.30 75.73 1.28 16
3 01/20/2021 19:13:19 81.36, -60.79 103.67 01/20/2021 19:14:08 81.35, -60.88 103.67 2.14 49
4 01/20/2021 20:03:59 -81.35, 106.89 76.32 01/20/2021 20:03:34 -81.36, 107.06 76.30 3.17 25
5 01/23/2021 14:47:40 81.35, 5.77 103.01 01/23/2021 14:48:20 81.36, 5.81 103.04 1.10 40
6 01/23/2021 15:38:21 -81.35, 173.09 77.00 01/23/2021 15:37:48 -81.34, 173.02 77.03 2.14 33
7 01/26/2021 10:22:03 81.36, 71.93 102.29 01/26/2021 10:22:34 81.35, 72.09 102.31 2.85 31
8 01/26/2021 11:12:43 -81.35,-120.34 77.70 01/26/2021 11:12:01 -81.35,-120.30 77.71 0.93 42
9 01/29/2021 05:56:25 81.35, 138.46 101.55 01/29/2021 05:56:48 81.34, 138.33 101.53 2.53 23



Historial Predications of SNOs between METOP-A and TERRA
